FW1302 Weather Reports


time (UTC)temp
F
wind
direction
speed
knots
gust
knots
rain 1hr
in
rain 24hr
in
rain mn
in
humidity
%
barometer
mb
20260903121830 54 112 0.9 1.7 0.00 0.01 0.00 95 1021.2
20260903120828 54 112 0.9 0.9 0.00 0.01 0.00 95 1021.2
20260903115828 54 112 0.0 0.0 0.00 0.01 0.00 95 1021.2
20260903114829 54 112 0.9 1.7 0.00 0.01 0.00 95 1021.3
20260903113829 54 112 1.7 1.7 0.00 0.01 0.00 95 1021.2
20260903110830 54 112 0.0 0.0 0.00 0.01 0.00 94 1021.3
20260903110729 54 112 0.0 0.0 0.00 0.01 0.00 95 1021.3
20260903105731 54 135 0.0 0.0 0.00 0.01 0.00 94 1021.1
20260903104828 54 135 0.0 0.0 0.00 0.01 0.00 94 1021.1
20260903103829 54 135 0.0 0.0 0.00 0.01 0.00 94 1021.2
20260903102830 54 135 3.5 4.3 0.00 0.01 0.00 94 1020.9
20260903095928 54 135 0.0 0.9 0.00 0.01 0.00 93 1020.8
20260903094930 54 135 1.7 2.6 0.00 0.01 0.00 94 1020.7
20260903093929 55 135 2.6 2.6 0.00 0.01 0.00 92 1020.8
20260903093830 55 135 2.6 2.6 0.00 0.01 0.00 93 1020.9
20260903092929 55 180 0.0 0.0 0.00 0.01 0.00 92 1020.9
20260903092831 55 180 0.0 0.0 0.00 0.01 0.00 92 1020.8
20260903085931 56 180 0.0 1.7 0.00 0.01 0.00 89 1020.8
20260903084928 56 223 1.7 3.5 0.00 0.01 0.00 89 1021.0
20260903082929 56 185 0.0 3.5 0.00 0.01 0.00 88 1020.6
20260903081029 57 225 5.2 8.7 0.00 0.01 0.00 90 1020.5
20260903080029 56 225 7.0 12.2 0.00 0.01 0.00 92 1020.6
20260903075030 56 219 3.5 6.1 0.00 0.01 0.00 93 1020.6
20260903074129 56 226 7.0 9.6 0.00 0.01 0.00 93 1020.7
20260903073129 55 202 2.6 3.5 0.00 0.01 0.00 94 1020.6
20260903072130 55 180 0.0 0.0 0.00 0.01 0.00 94 1020.3
20260903071128 55 202 1.7 1.7 0.00 0.01 0.00 94 1020.3
20260903070129 55 360 0.0 0.0 0.00 0.01 0.00 94 1020.3
20260903064212 55 180 0.0 0.0 0.00 0.01 0.01 95 1020.4
20260903063214 55 180 0.0 0.0 0.00 0.01 0.01 94 1020.3
20260903062211 55 157 0.0 0.9 0.00 0.01 0.01 93 1020.3
20260903061211 55 157 0.0 0.0 0.00 0.01 0.01 93 1020.3
20260903060211 56 157 0.9 1.7 0.00 0.01 0.01 93 1020.5
20260903055213 56 157 2.6 3.5 0.00 0.01 0.01 92 1020.3
20260903054312 57 180 0.0 0.9 0.00 0.01 0.01 92 1020.3
20260903052314 57 246 1.7 3.5 0.00 0.01 0.01 91 1020.3
20260903051411 57 225 2.6 3.5 0.00 0.01 0.01 91 1020.1
20260903051312 57 225 1.7 3.5 0.00 0.01 0.01 91 1020.1
20260903050313 57 224 1.7 2.6 0.00 0.01 0.01 93 1020.1
20260903045412 58 225 1.7 2.6 0.00 0.01 0.01 92 1019.9
20260903044511 58 232 4.3 6.1 0.00 0.01 0.01 92 1019.9
20260903043512 58 225 4.3 6.1 0.00 0.01 0.01 92 1019.9
20260903042511 58 228 7.0 8.7 0.00 0.01 0.01 93 1019.8
20260903041514 58 221 4.3 6.1 0.00 0.01 0.01 93 1019.5
20260903040513 58 225 4.3 6.1 0.00 0.01 0.01 93 1019.5
20260903035512 58 225 5.2 6.1 0.00 0.01 0.01 93 1019.4
20260903034511 58 225 4.3 6.1 0.00 0.01 0.01 93 1019.2
20260903032513 58 223 3.5 5.2 0.00 0.01 0.01 93 1019.2
20260903032411 58 225 3.5 5.2 0.00 0.01 0.01 93 1019.2
20260903031413 58 225 3.5 3.5 0.00 0.01 0.01 93 1019.3
20260903030512 58 225 3.5 5.2 0.00 0.01 0.01 93 1019.2
20260903025513 58 225 5.2 6.1 0.00 0.01 0.01 94 1019.2
20260903024611 58 225 3.5 4.3 0.00 0.01 0.01 93 1019.1
20260903023613 58 207 6.1 9.6 0.00 0.01 0.01 92 1019.1
20260903022614 59 224 6.1 8.7 0.00 0.01 0.01 93 1019.1
20260903021711 59 223 6.1 9.6 0.01 0.01 0.01 93 1018.9
20260903021613 59 225 7.0 10.4 0.01 0.01 0.01 92 1018.9
20260903020614 59 225 3.5 6.1 0.01 0.01 0.01 93 1019.0
20260903015613 59 225 8.7 11.3 0.01 0.01 0.01 92 1018.8
20260903014613 59 228 7.0 8.7 0.01 0.01 0.01 93 1018.5
20260903013612 59 225 6.1 8.7 0.01 0.01 0.01 94 1018.5
20260903012712 59 231 9.6 12.2 0.01 0.01 0.01 94 1018.5
20260903011710 59 226 7.8 11.3 0.00 0.00 0.00 93 1018.5
20260903010712 59 215 3.5 5.2 0.00 0.00 0.00 93 1018.4
20260903005712 59 200 1.7 3.5 0.00 0.00 0.00 94 1018.1
20260903004712 59 180 0.0 0.0 0.00 0.00 0.00 92 1018.2
20260903003711 59 197 0.0 0.0 0.00 0.00 0.00 93 1018.1
20260903002713 60 202 0.0 0.0 0.00 0.00 0.00 92 1018.3
20260903001712 59 202 0.0 0.0 0.00 0.00 0.00 92 1018.2
20260903000713 59 202 0.0 0.0 0.00 0.00 0.00 93 1018.1
20260902235713 59 202 0.0 0.0 0.00 0.00 0.00 92 1018.2
20260902234712 59 180 0.0 0.0 0.00 0.00 0.00 91 1018.0
20260902233712 59 180 0.0 0.0 0.00 0.00 0.00 92 1018.3
20260902230714 60 180 0.0 0.0 0.00 0.00 0.00 92 1018.0
20260902224713 60 202 0.0 0.0 0.00 0.00 0.00 91 1018.3
20260902223811 60 202 0.0 0.0 0.00 0.00 0.00 90 1018.0
20260902221813 60 202 0.0 0.0 0.00 0.00 0.00 92 1018.2
20260902215914 60 204 0.0 2.6 0.00 0.00 0.00 91 1018.4
20260902213911 60 45 0.9 1.7 0.00 0.00 0.00 90 1018.2
20260902212913 60 45 0.0 0.0 0.00 0.00 0.00 89 1018.0
20260902211011 60 45 0.0 0.0 0.00 0.00 0.00 89 1017.8
20260902210913 60 45 0.0 0.0 0.00 0.00 0.00 89 1017.8
20260902210012 60 45 0.0 0.0 0.00 0.00 0.00 90 1017.8
20260902204013 60 45 2.6 2.6 0.00 0.00 0.00 89 1017.7
20260902203014 60 49 3.5 3.5 0.00 0.00 0.00 89 1017.7
20260902202112 60 135 0.0 0.0 0.00 0.00 0.00 88 1017.9
20260902201112 60 135 0.0 0.0 0.00 0.00 0.00 88 1018.0
20260902200112 60 135 0.9 2.6 0.00 0.00 0.00 87 1018.1
20260902195112 61 184 0.0 3.5 0.00 0.00 0.00 86 1018.4
20260902194113 61 207 1.7 4.3 0.00 0.00 0.00 85 1018.5
20260902193112 61 225 5.2 7.0 0.00 0.00 0.00 83 1018.5
20260902192211 62 220 5.2 7.8 0.00 0.00 0.00 82 1018.4
20260902191213 62 225 6.1 7.0 0.00 0.00 0.00 80 1018.4
20260902190214 63 231 3.5 5.2 0.00 0.00 0.00 78 1018.2
20260902185212 63 225 3.5 5.2 0.00 0.00 0.00 76 1018.2
20260902184214 63 270 5.2 6.1 0.00 0.00 0.00 73 1017.9
20260902183210 64 247 4.3 6.1 0.00 0.00 0.00 71 1018.0
20260902182212 65 270 3.5 4.3 0.00 0.00 0.00 66 1018.0
20260902175311 64 247 0.9 1.7 0.00 0.00 0.00 66 1018.0
20260902175211 64 247 0.9 1.7 0.00 0.00 0.00 66 1018.0
20260902174213 65 292 2.6 2.6 0.00 0.00 0.00 66 1017.9
20260902172213 64 22 1.7 2.6 0.00 0.00 0.00 67 1017.9
20260902171212 64 22 2.6 3.5 0.00 0.00 0.00 68 1017.9
20260902171110 64 22 1.7 2.6 0.00 0.00 0.00 68 1017.9
20260902170112 64 22 3.5 4.3 0.00 0.00 0.00 68 1018.0
20260902164211 64 22 3.5 4.3 0.00 0.00 0.00 70 1018.1
20260902163213 63 45 3.5 4.3 0.00 0.00 0.00 70 1018.2
20260902162213 64 45 4.3 5.2 0.00 0.00 0.00 70 1018.3
20260902160310 64 45 5.2 6.1 0.00 0.00 0.00 68 1018.5
20260902155313 64 45 4.3 5.2 0.00 0.00 0.00 68 1018.7
20260902154311 63 45 2.6 4.3 0.00 0.00 0.00 71 1018.9
20260902152313 62 45 1.7 3.5 0.00 0.00 0.00 74 1019.2
20260902150412 61 112 0.0 0.0 0.00 0.00 0.00 76 1019.3
20260902145415 61 112 0.0 0.0 0.00 0.00 0.00 76 1019.4
20260902144511 61 135 0.0 0.0 0.00 0.00 0.00 77 1019.4
20260902143512 61 135 0.0 0.0 0.00 0.00 0.00 76 1019.6
20260902143413 61 135 0.0 0.0 0.00 0.00 0.00 76 1019.5
20260902142512 61 135 0.0 0.0 0.00 0.00 0.00 74 1019.9
20260902140612 60 135 0.0 0.0 0.00 0.00 0.00 77 1020.1
20260902140514 60 135 0.0 0.0 0.00 0.00 0.00 77 1020.1
20260902135611 60 135 0.0 0.0 0.00 0.00 0.00 76 1020.1
20260902134612 60 135 0.0 0.9 0.00 0.00 0.00 78 1020.3
20260902133611 60 135 1.7 3.5 0.00 0.00 0.00 79 1020.3
20260902132711 60 180 0.0 0.0 0.00 0.00 0.00 79 1020.4
20260902131711 60 247 0.0 0.0 0.00 0.00 0.00 78 1020.3
20260902125712 61 241 7.0 9.6 0.00 0.00 0.00 75 1020.5
20260902124713 62 243 7.8 10.4 0.00 0.00 0.00 71 1020.5
20260902123714 63 265 10.4 15.6 0.00 0.00 0.00 68 1020.4
20260902122712 63 257 5.2 7.0 0.00 0.00 0.00 68 1020.5